Regional Weather Roundup
Issued by NWS Huntsville, AL

Home | Current Version | Previous Version | Text Only | Print | Product List | Glossary On
Versions: 1 2 3 4 5 6 7 8 9 10 11 12 13 14 15 16 17 18 19 20 21 22 23 24 25 26 27 28
000
ASUS44 KHUN 220110
RWRHUN

WEATHER ROUNDUP FOR THE TENNESSEE VALLEY
NATIONAL WEATHER SERVICE HUNTSVILLE AL
800 PM CDT MON MAY 21 2018

ALZ001>004-220200-
NORTHWEST ALABAMA

CITY           SKY/WX    TMP DP  RH WIND       PRES   REMARKS
SHOALS AIRPORT FAIR      76  62  62 SE6       30.04R
$$

ALZ005>007-016-220200-
NORTH CENTRAL ALABAMA

CITY           SKY/WX    TMP DP  RH WIND       PRES   REMARKS
DECATUR AP     FAIR      75  61  61 SE7       30.06R
HUNTSVILLE AP  FAIR      77  62  59 S6        30.06R
MERIDIANVILLE  PTCLDY    77  65  65 CALM      30.07R
VINEMONT AP    FAIR      74  61  63 CALM      30.10R
$$

ALZ008>010-220200-
NORTHEAST ALABAMA

CITY           SKY/WX    TMP DP  RH WIND       PRES   REMARKS
ALBERTVILLE    CLOUDY    73  68  83 CALM      30.07S HAZE
FORT PAYNE     CLOUDY    75  61  60 CALM      30.06S
SCOTTSBORO AP  CLOUDY    77  70  78 CALM      30.07R
$$

TNZ076-096-097-220200-
SOUTHEASTERN MIDDLE TENNESSEE

CITY           SKY/WX    TMP DP  RH WIND       PRES   REMARKS
TULLAHOMA      CLEAR     73  61  64 CALM      30.08R
WINCHESTER     CLEAR     75  63  64 SW5       30.08R
$$

...SURROUNDING SITES...

CITY           SKY/WX    TMP DP  RH WIND       PRES   REMARKS
ATLANTA        MOCLDY    73  64  73 SE5       30.11R
ANNISTON       FAIR      72  67  84 E6        30.06S
BIRMINGHAM     MOCLDY    76  67  73 SE3       30.08R
CHATTANOOGA    MOCLDY    80  61  52 SE3       30.07R
CORINTH          N/A     73  70  88 CALM      30.02R
DALTON         MOCLDY    73  70  88 CALM      30.09S
GADSDEN        MOCLDY    77  69  76 E3        30.06R
GOLDEN TRNGL   FAIR      80  69  69 SE10      30.02R
HALEYVILLE     FAIR      73  68  84 SE5       30.08R
JACKSON TN     FAIR      75  69  81 CALM      30.02R
MEMPHIS        CLOUDY    77  71  82 SW3       30.02R
NASHVILLE      MOCLDY    79  64  60 S5        30.05R
ROME           CLOUDY    78  68  71 CALM      30.06R
SAVANNAH       CLEAR     75  73  94 CALM      30.02R
SELMER         MOCLDY    72  72 100 CALM      30.02R
TUPELO         CLOUDY    79  68  69 CALM      30.01R
TUSCALOOSA     FAIR      78  69  73 E6        30.03R
$$

...GULF COAST WEATHER...

CITY           SKY/WX    TMP DP  RH WIND       PRES   REMARKS
GULFPORT       FAIR      78  73  84 CALM      29.98R
PASCAGOULA     FAIR      75  71  87 CALM      29.98R
MOBILE         FAIR      76  71  85 W3        30.00R
GULF SHORES    RAIN      72  71  97 W12       29.99R
PENSACOLA      MOCLDY    73  69  87 SW5       29.98
DESTIN         FAIR      77  69  76 SE8       30.00R
APPALACHICOLA  MOCLDY    78  75  90 SE8       30.01R
$$





USA.gov is the U.S. government's official web portal to all federal, state and local government web resources and services.